Location: Gollag?dem
(16.8053°N, 80.8024°E)
Time: 13:36:06
(UTC+00:00)

NOSS 3-4 (A) - Pass Details

Date: 13 August 2020
Orbit: 886 x 1326 km, 63.4° (Epoch: 22 September)

Event Time Altitude Azimuth Distance (km) Brightness Sun altitude
Exits shadow 23:37:15 12° 234° (SW) 2,416 5.0 -10.7°
Maximum altitude 23:42:11 36° 298° (WNW) 1,358 4.0 -9.6°
Drops below altitude 10° 23:47:35 10° 4° (N) 2,575 6.0 -8.3°
Sets 23:50:20 0° 13° (NNE) 3,551 6.9 -7.7°
